GEFSSGP_500_meanwind_000.txt.gz
Wind_Speed
3 7 9 11 11 11 10 9 8 10 10 11 11 10 10 7 6 5 5 5 3 1 0 1 2 1 0 1 3 3 5 6 6 5 4 3 4 5 5 4 3 3 5 7 7 6 6 5 5
5 7 8 10 10 7 8 9 8 7 6 6 6 6 6 5 5 5 5 5 4 3 3 1 1 1 3 4 6 6 7 7 7 6 5 4 4 5 6 5 4 3 4 6 8 7 6 4 2
5 6 7 5 6 3 5 6 8 9 7 5 4 3 2 2 3 3 3 3 3 3 4 3 4 5 6 7 8 9 8 6 5 5 6 5 5 5 5 6 5 3 4 6 9 9 9 6 4
6 5 4 4 4 4 5 7 8 7 7 6 5 4 3 2 1 1 1 2 3 3 3 4 5 6 6 6 7 8 7 5 4 4 6 7 6 6 6 6 6 6 7 11 12 10 11 10 8
9 8 7 8 9 7 5 5 5 7 6 5 4 4 3 2 2 3 3 3 3 3 3 3 3 4 5 6 7 7 7 6 6 6 6 7 7 7 7 8 11 12 13 13 11 9 9 8 8
13 12 9 8 11 6 4 5 10 11 8 7 4 4 3 1 1 1 1 1 3 3 3 3 3 4 5 6 7 8 8 8 8 8 8 8 8 10 11 14 16 15 15 13 12 12 10 7 7
18 16 14 12 12 9 9 9 11 12 10 9 6 4 3 0 1 1 1 2 3 4 4 5 6 8 9 10 10 10 11 11 11 11 11 12 14 16 16 16 18 18 18 17 16 15 14 12 10
23 20 19 17 16 15 11 11 10 8 9 9 7 5 5 5 5 5 6 7 9 10 11 11 12 13 14 15 16 16 17 17 17 17 17 18 19 20 20 21 21 20 20 19 19 19 19 18 16
26 22 19 21 19 18 13 9 8 9 9 9 9 8 9 9 10 11 13 14 16 18 19 21 22 23 24 24 24 24 22 23 23 22 22 24 25 25 25 25 26 26 26 25 24 25 24 23 22
26 24 22 26 22 19 16 9 10 9 9 11 13 13 12 14 16 19 21 22 23 24 23 24 26 28 29 30 31 31 30 30 30 30 30 30 31 31 31 30 31 31 32 32 31 31 30 29 28
25 27 29 29 26 23 21 14 13 13 13 14 15 17 17 19 23 26 28 27 28 28 28 28 30 32 33 33 33 34 35 36 36 36 36 35 36 35 35 35 36 37 38 38 37 36 36 35 36
22 25 28 29 29 27 24 19 15 17 18 17 19 20 22 25 27 30 32 31 31 31 32 32 35 36 37 37 37 37 37 38 39 39 39 40 41 41 41 41 41 42 44 43 41 41 42 41 42
25 23 23 25 27 27 25 23 20 19 22 22 22 21 23 27 30 33 34 34 34 35 35 35 35 36 38 39 40 40 40 40 40 40 41 43 44 46 45 45 45 46 48 48 45 47 50 51 46
29 26 24 23 23 25 25 24 24 22 24 25 26 26 28 31 33 34 36 36 37 37 35 33 32 34 37 39 41 41 38 37 36 35 35 37 39 41 40 39 40 41 42 42 42 45 52 51 38
32 29 26 26 24 23 25 26 26 27 27 29 29 30 32 34 34 36 37 37 37 35 34 33 33 35 36 37 38 38 36 36 37 37 36 35 35 34 32 32 33 34 34 35 37 40 41 35 32
36 33 31 32 31 30 29 27 30 28 30 31 32 33 34 36 37 38 38 37 34 32 33 37 37 35 34 35 34 35 35 36 37 36 35 34 33 31 31 31 30 31 31 35 37 38 39 35 31
35 34 35 37 38 36 35 34 38 34 35 35 35 35 35 37 38 37 38 36 33 33 35 37 36 32 32 33 32 34 34 34 34 32 30 30 30 28 28 28 28 30 31 33 36 37 37 33 31
26 31 35 39 43 39 40 41 41 40 40 41 39 38 38 38 36 37 36 35 37 36 33 34 29 26 27 28 29 31 30 29 28 30 30 29 27 25 24 25 26 27 30 32 36 38 37 33 30
26 29 31 38 44 42 44 45 45 44 43 40 36 34 33 34 34 35 36 38 38 35 34 28 25 24 26 27 26 25 25 24 23 24 26 24 21 20 21 21 21 23 26 30 34 38 39 36 33
18 22 25 35 40 41 43 43 42 39 35 31 29 29 30 32 34 36 37 38 37 36 33 28 27 27 26 23 21 20 20 19 19 21 21 18 16 17 17 17 19 22 26 28 32 36 38 37 36
11 16 20 25 29 29 32 32 32 31 28 27 28 30 31 34 36 36 37 38 36 35 31 28 27 25 22 21 21 19 17 17 18 19 18 17 17 17 16 16 18 22 26 30 33 36 37 37 36
8 16 15 17 19 18 25 22 21 27 26 27 28 29 31 35 38 37 37 37 33 30 28 28 30 28 24 24 23 21 20 21 21 21 20 19 17 16 17 17 19 23 25 29 32 35 35 35 35
11 14 13 14 15 16 17 18 15 24 26 28 31 33 36 38 41 38 34 31 29 29 32 34 34 30 27 26 27 26 25 25 26 27 26 24 22 21 20 21 22 24 26 29 31 30 32 34 34
11 11 11 13 13 10 14 11 10 20 20 22 26 31 34 35 37 33 30 28 28 30 32 33 33 32 29 28 29 28 30 31 31 32 32 30 27 24 21 21 23 23 26 30 32 32 32 33 32
13 12 9 8 9 12 17 10 16 20 20 21 24 27 27 29 29 30 29 23 26 30 32 33 33 33 32 32 31 30 32 34 34 35 36 35 32 27 23 21 23 25 27 30 33 33 32 31 29
10 10 8 8 10 12 14 9 17 18 19 20 21 24 25 26 28 30 32 31 34 36 36 35 36 35 37 38 36 35 35 37 35 34 35 34 34 31 25 23 24 26 28 30 33 32 30 29 29
8 9 10 11 11 11 9 12 18 23 23 23 23 25 27 29 31 32 32 35 37 38 38 39 39 40 44 44 43 42 41 40 38 35 33 32 32 30 25 24 26 26 26 29 31 31 29 28 27
9 11 10 10 10 10 12 15 21 20 24 27 29 32 33 35 37 38 38 37 38 41 44 45 46 49 51 51 50 48 45 43 40 37 37 36 32 29 25 23 24 24 25 28 30 31 31 28 26
14 15 13 13 15 17 16 20 24 23 25 27 30 34 37 40 41 42 44 44 43 45 48 50 52 54 55 56 56 55 53 50 44 39 36 35 33 28 27 23 23 24 26 28 29 31 31 30 26
16 18 18 18 20 23 26 28 29 30 32 33 35 37 39 40 42 44 46 48 49 50 52 55 58 60 61 61 61 60 61 58 52 46 39 38 33 26 27 32 30 30 30 29 28 29 31 31 27

GEFSSGP_500_meanwind_006.txt.gz
Wind_Speed
11 12 12 12 11 13 10 3 2 1 1 2 2 2 3 2 1 2 1 2 2 2 3 4 5 4 4 5 8 10 11 12 13 13 13 12 11 11 11 10 8 7 6 7 9 11 11 11 11
11 11 10 9 9 11 4 2 3 4 3 2 2 2 2 3 3 4 4 3 3 3 3 4 4 4 5 7 9 11 13 13 13 13 12 12 12 12 11 10 9 8 7 8 12 14 13 12 12
11 11 8 4 3 6 5 6 7 6 5 6 6 5 4 5 6 6 6 6 5 5 5 5 6 6 7 8 9 11 12 13 13 13 12 11 12 12 12 11 9 9 10 12 16 17 14 13 12
10 9 3 4 10 4 5 8 10 7 6 8 9 6 7 8 8 8 7 7 6 6 6 6 7 8 9 9 9 10 12 13 13 13 13 13 13 14 13 12 11 12 14 16 17 16 14 13 12
9 7 3 8 15 10 3 9 9 9 9 9 11 8 8 8 9 9 8 7 8 8 7 7 8 9 10 11 10 12 13 14 15 15 16 16 16 16 16 15 16 18 19 19 18 16 15 14 13
9 9 5 3 15 15 4 10 10 5 9 10 13 9 10 8 8 8 7 6 6 6 7 7 8 10 11 13 14 15 17 18 18 19 20 20 19 19 19 20 21 22 22 21 19 17 17 15 15
13 11 8 2 13 19 6 11 15 7 9 8 8 11 11 10 9 7 6 5 7 8 9 11 13 14 16 17 18 19 20 21 21 22 23 23 21 21 21 23 24 25 24 24 22 21 21 20 19
17 14 10 2 8 17 17 11 15 16 18 12 9 14 11 11 10 9 7 7 9 12 14 17 19 20 21 22 23 24 24 25 26 26 26 26 25 24 25 26 28 28 28 28 27 25 25 25 24
18 17 10 3 12 16 17 14 15 14 17 17 13 16 13 12 13 13 12 13 15 18 19 21 22 22 23 24 26 28 29 28 28 29 31 31 31 30 30 31 32 32 33 32 31 30 29 28 28
19 18 10 9 16 15 14 10 14 14 14 20 20 16 15 15 15 17 18 19 21 23 24 25 26 27 28 28 28 30 31 30 31 31 33 34 34 33 34 34 36 36 36 35 35 35 34 32 32
22 20 18 16 21 23 20 15 14 12 14 23 23 20 16 18 19 19 20 21 23 26 28 30 31 31 32 31 31 31 32 31 31 33 34 34 34 34 35 36 36 37 37 37 38 38 37 36 36
25 24 25 26 26 26 26 22 17 12 16 27 28 24 19 22 24 24 23 24 26 28 30 32 35 36 36 35 34 33 33 33 33 34 34 34 33 33 33 34 35 36 37 37 38 39 39 38 39
27 26 27 28 28 27 26 24 20 15 17 26 28 26 23 25 28 29 29 29 30 32 33 34 36 38 39 37 36 36 36 37 37 36 35 35 33 32 31 31 32 31 31 32 31 30 27 26 25
25 27 30 29 27 23 23 23 20 18 18 29 29 28 28 30 32 31 31 33 35 36 37 37 38 40 38 37 38 39 38 39 39 38 37 35 34 33 33 31 28 27 27 26 24 22 22 22 22
24 26 28 27 25 21 20 21 20 19 19 30 34 34 33 32 31 33 35 36 38 39 39 40 41 40 37 38 40 41 39 38 37 37 35 32 31 30 30 28 25 24 24 23 22 21 21 22 23
21 22 23 23 21 19 23 25 20 17 19 29 34 35 35 32 33 36 39 40 42 41 40 41 42 38 37 40 41 41 39 37 35 34 32 30 28 27 27 26 25 24 23 23 22 22 22 22 22
11 17 17 16 16 21 26 24 18 21 26 28 31 35 38 37 38 40 42 42 40 38 41 40 40 38 38 39 41 41 38 36 34 31 29 27 26 25 26 27 26 25 24 23 22 19 19 19 21
8 9 12 10 13 23 24 19 20 29 32 33 34 38 42 42 43 45 45 40 40 40 40 39 39 38 39 40 42 40 36 34 32 29 27 25 24 23 23 24 23 22 21 20 17 16 17 19 21
13 11 10 10 17 24 26 23 22 30 34 33 37 43 46 46 48 50 46 39 37 39 40 41 39 38 40 41 41 37 34 32 29 27 25 24 23 22 21 20 17 17 17 16 16 16 17 19 21
5 10 12 15 20 24 27 30 28 30 38 38 38 39 42 45 47 46 37 33 33 36 39 41 41 40 41 41 39 36 35 32 29 26 25 24 22 21 20 18 17 17 17 16 16 16 17 20 22
7 11 15 17 20 23 24 23 19 18 26 32 32 36 38 35 39 36 33 32 36 38 39 42 43 43 42 40 39 38 37 35 32 29 27 25 24 22 20 20 20 19 19 19 18 17 18 20 23
9 14 17 18 19 17 14 16 14 16 24 31 34 34 28 28 31 21 22 29 36 40 41 43 43 42 39 38 37 35 33 31 30 28 27 26 24 22 22 22 22 22 23 23 22 20 19 20 23
12 13 12 11 11 10 9 11 13 17 23 28 32 34 34 34 32 31 29 32 36 39 40 42 36 33 33 32 33 30 28 27 27 27 26 25 24 24 24 25 26 27 28 27 25 24 22 22 23
11 10 7 10 15 20 18 11 17 20 24 30 34 35 37 35 33 31 29 31 35 37 38 36 31 30 32 32 33 31 29 27 27 29 29 28 28 27 26 27 29 31 33 33 30 27 25 24 24
8 8 8 12 19 22 17 6 16 18 21 26 30 33 34 33 31 30 30 32 35 37 37 37 36 35 35 36 37 37 34 31 30 31 31 32 33 33 32 31 32 33 34 34 32 30 28 27 26
10 8 10 14 15 19 21 15 21 25 24 26 29 33 36 38 37 36 36 38 40 41 42 42 42 42 42 42 42 42 41 39 38 37 36 36 37 38 38 37 37 36 35 34 34 32 30 29 27
12 10 11 14 12 11 17 23 31 29 25 28 34 38 40 42 44 44 44 44 45 47 48 49 50 50 50 50 50 49 49 48 47 47 46 44 43 42 42 40 38 38 38 37 35 34 33 30 28
18 17 16 15 14 15 17 30 33 29 29 35 39 39 41 44 48 50 50 51 51 52 53 54 56 56 56 57 57 57 57 56 55 54 54 54 53 50 47 44 40 39 39 39 38 36 34 31 29
15 17 18 18 17 19 19 30 32 35 36 39 42 43 45 49 51 53 54 55 56 56 57 58 59 60 61 61 61 61 61 62 62 62 61 61 60 58 54 50 48 46 43 41 40 37 35 33 31
12 20 22 23 22 22 22 31 34 36 37 40 44 47 51 53 54 55 56 57 58 59 59 60 61 62 63 64 64 64 63 63 64 65 66 66 65 63 59 54 50 51 49 44 41 38 36 33 31

GEFSSGP_500_meanwind_012.txt.gz
Wind_Speed
10 11 10 9 8 8 5 3 6 4 3 6 8 9 8 6 4 6 6 5 6 6 6 6 6 6 6 6 5 5 6 6 7 8 8 8 8 8 9 9 8 8 9 11 13 15 16 14 12
10 10 9 7 6 4 3 3 3 2 2 1 5 8 8 7 7 7 6 6 7 8 8 8 8 8 8 7 7 7 6 5 5 6 7 7 7 7 8 8 8 8 9 12 13 13 14 14 13
11 9 7 4 4 3 4 3 3 4 2 2 4 6 6 6 8 8 8 8 10 10 9 9 9 9 9 8 8 8 7 7 6 6 7 7 8 8 8 8 7 8 10 11 12 12 13 13 13
10 9 7 6 7 6 8 9 9 7 6 5 5 5 5 6 8 8 8 9 10 10 10 10 10 10 9 8 8 8 9 9 10 11 10 10 10 10 10 9 9 10 11 11 11 11 11 12 12
12 10 8 8 13 12 12 15 14 11 8 9 8 7 5 6 7 7 8 9 9 9 9 10 10 10 9 9 9 10 11 13 15 16 16 15 14 14 13 12 12 12 13 13 12 12 12 12 12
15 12 9 8 12 13 12 16 18 17 11 8 8 8 6 5 6 7 7 8 8 8 8 9 9 9 11 12 14 15 17 18 20 20 20 19 19 18 18 16 15 15 16 16 15 15 15 16 15
18 15 9 4 8 11 12 16 19 20 16 9 9 9 8 7 7 8 9 10 9 10 11 12 12 13 14 15 17 18 20 21 22 23 23 23 22 22 21 20 20 20 20 20 19 19 19 19 19
20 17 13 8 11 12 11 14 19 20 18 14 13 12 10 11 10 10 12 14 13 14 16 17 17 17 18 19 20 20 21 22 23 24 23 23 24 24 23 23 23 23 23 23 24 24 23 23 23
20 18 16 15 18 17 12 14 18 20 19 16 15 16 13 14 15 14 14 17 18 19 21 23 23 23 22 22 22 21 21 22 23 23 23 23 23 24 23 23 24 25 25 26 27 27 26 25 25
21 19 18 22 22 22 16 15 19 22 20 19 19 18 18 18 19 18 16 19 22 23 25 27 28 28 26 24 23 22 22 22 21 21 22 23 24 24 23 22 23 25 26 27 29 28 28 27 27
20 18 21 27 28 27 22 21 21 24 24 22 22 24 25 23 22 23 23 23 27 30 30 31 31 29 27 25 24 23 23 22 21 21 22 24 25 25 24 22 21 22 23 25 27 29 29 28 28
20 18 22 28 32 31 29 28 25 25 28 28 29 29 29 27 27 29 30 29 30 34 36 36 34 31 28 26 25 24 23 22 22 23 24 24 25 24 23 22 22 22 21 21 22 25 26 25 25
22 21 22 26 31 33 33 32 30 29 30 33 34 34 33 32 32 34 35 36 36 36 38 39 37 34 30 28 27 25 23 23 23 24 24 24 24 24 22 22 21 22 21 19 18 19 20 21 22
22 23 21 21 24 31 34 33 32 29 30 33 33 33 33 33 35 37 38 40 41 42 41 41 41 38 34 31 29 26 24 23 23 23 24 24 24 23 23 22 22 21 20 18 18 19 19 21 22
22 21 19 19 21 23 29 30 28 26 26 29 30 31 33 35 38 40 42 43 44 45 43 41 41 43 40 34 31 27 25 25 23 23 23 22 22 22 21 20 21 20 19 18 18 19 20 21 22
21 19 15 15 17 18 23 23 19 22 22 25 29 32 35 37 39 42 44 46 47 44 44 44 42 43 40 35 31 28 25 24 23 22 21 20 20 20 19 18 18 19 19 19 19 19 21 21 22
18 15 12 12 12 13 16 14 13 19 22 25 30 34 37 39 42 45 47 49 47 43 43 41 39 38 36 33 29 24 22 23 23 23 21 19 18 18 18 17 17 18 18 18 18 20 20 20 19
14 13 10 10 10 11 12 14 18 22 26 29 31 34 37 41 46 48 51 51 53 52 48 40 36 31 28 25 21 19 20 21 22 22 21 20 18 18 18 17 16 16 16 16 17 17 18 17 16
12 13 14 13 12 13 15 19 22 26 29 32 34 37 40 44 47 49 50 53 53 52 51 46 32 21 18 16 15 16 19 20 21 22 21 21 19 19 18 17 16 15 15 15 15 15 16 16 16
12 15 18 19 19 18 20 23 26 30 32 35 38 41 43 43 44 44 45 47 47 46 44 36 26 19 18 18 18 18 19 20 19 19 19 19 19 19 18 18 17 16 15 15 15 16 17 18 18
12 14 17 22 24 24 26 27 29 32 36 38 38 37 36 35 35 37 39 41 41 40 37 35 28 25 21 20 20 20 17 16 16 17 16 16 17 17 18 18 17 17 16 16 17 17 18 20 20
8 11 14 16 19 23 26 30 31 33 35 35 34 32 31 31 33 35 37 38 38 37 36 35 32 29 25 24 24 21 19 19 18 18 16 15 16 18 18 19 19 19 19 19 19 19 20 21 23
10 11 12 11 10 11 13 18 21 24 28 30 30 29 27 28 31 35 37 39 40 38 36 34 34 34 32 31 29 26 24 24 23 22 20 19 19 20 20 21 22 22 22 22 22 22 23 24 25
13 13 11 9 9 11 13 16 18 21 23 23 22 22 24 28 32 36 39 42 43 42 40 39 39 39 39 39 37 35 33 31 31 30 28 26 25 24 24 24 24 25 25 26 25 25 26 27 27
11 11 9 9 11 13 16 18 20 22 23 21 20 20 23 27 33 38 43 45 47 47 47 46 45 45 45 45 45 44 42 41 40 39 38 36 34 32 30 29 28 29 29 29 29 28 28 29 29
10 13 15 14 16 17 19 22 23 25 25 26 27 27 29 33 38 43 46 49 50 50 50 50 50 49 50 50 49 49 49 48 47 47 47 46 45 42 39 37 36 35 35 34 33 32 31 31 31
14 17 17 17 18 20 22 23 25 27 29 32 34 36 40 43 46 49 51 53 54 54 54 54 53 53 53 53 53 54 54 54 53 53 52 52 52 51 49 47 45 43 42 40 39 37 36 35 34
18 19 17 18 20 22 25 28 30 32 35 37 41 44 47 50 52 55 56 58 59 59 60 60 60 59 59 59 59 59 59 59 59 58 58 57 57 56 56 55 54 52 50 47 45 42 41 40 38
16 14 14 17 21 24 28 30 32 36 39 42 45 47 49 52 54 57 59 60 62 64 65 66 67 68 68 67 67 66 66 65 65 64 63 62 62 61 60 60 59 59 57 54 51 48 46 44 42
17 17 18 20 22 25 29 33 37 40 42 44 47 49 52 54 57 60 62 64 67 69 71 73 74 75 74 74 73 71 70 69 69 69 69 69 67 66 65 64 63 62 61 59 57 53 51 48 46

GEFSSGP_500_meanwind_018.txt.gz
Wind_Speed
7 6 5 5 4 4 5 7 8 9 10 10 10 8 6 5 6 7 8 10 11 11 12 14 16 15 14 12 11 9 9 7 4 3 2 1 1 1 2 2 2 3 5 7 8 9 10 10 8
9 9 8 7 6 6 6 7 7 7 9 10 11 11 11 10 9 9 10 11 12 12 14 15 16 16 14 13 12 11 10 8 6 4 3 3 3 4 4 4 4 5 5 6 7 6 7 9 9
12 11 11 9 9 7 7 8 7 7 8 9 10 12 13 13 12 12 13 13 14 14 15 16 17 16 15 14 13 12 11 9 8 8 7 7 8 8 8 8 8 8 8 8 7 7 5 5 6
13 14 13 12 12 11 10 11 11 11 10 9 9 11 12 12 12 12 12 13 14 14 15 16 16 16 15 14 13 13 12 12 12 12 13 13 13 12 12 12 12 12 12 11 10 10 8 7 6
16 16 15 15 16 15 15 15 15 15 12 9 8 9 10 10 10 10 11 12 13 14 14 15 14 13 13 13 14 15 15 15 16 17 18 18 18 17 17 16 16 16 16 16 15 14 13 12 10
18 18 18 18 20 20 20 19 19 18 14 9 7 8 9 9 9 10 10 11 12 13 14 15 14 15 15 15 16 16 17 18 19 20 20 21 20 20 20 19 19 19 19 19 19 18 17 16 15
19 19 19 20 22 23 24 23 22 20 16 11 9 8 9 10 9 9 10 11 13 14 16 17 18 19 19 19 19 20 20 21 21 21 22 21 21 21 21 21 22 22 22 22 22 22 22 21 20
21 20 20 22 24 26 26 26 25 23 19 16 12 10 10 10 9 9 10 12 15 17 18 19 20 21 21 22 23 23 23 23 23 23 23 22 22 21 21 21 22 23 24 24 25 25 25 24 24
21 21 20 24 27 28 29 29 28 27 25 22 17 13 12 11 11 12 13 15 18 20 22 23 24 25 25 26 26 27 27 26 25 24 24 23 22 21 21 21 22 22 23 24 26 27 27 27 27
20 19 20 24 28 29 30 31 31 30 28 25 21 17 15 15 15 16 18 20 22 24 26 27 29 31 32 33 34 33 32 30 28 27 27 25 24 23 22 22 23 23 24 24 26 27 28 28 27
18 17 18 22 27 29 30 32 33 33 31 28 24 22 21 19 20 21 22 25 27 28 30 32 34 35 38 40 40 39 37 36 34 31 30 28 26 25 24 24 24 24 25 25 26 26 26 26 26
19 18 19 19 23 27 30 32 34 35 34 32 29 27 25 25 25 25 25 27 29 31 33 35 37 39 41 43 44 43 43 41 40 37 34 31 28 26 25 24 25 25 25 25 26 26 26 25 26
21 20 21 20 22 25 28 32 35 36 35 35 33 31 30 29 30 29 28 28 30 32 34 35 37 40 42 45 45 45 44 44 43 41 37 34 31 28 27 25 25 25 25 26 26 25 25 26 26
21 20 21 23 24 26 29 32 35 37 37 36 35 34 33 34 33 31 30 31 33 34 35 36 37 37 41 44 45 45 47 47 44 44 40 37 34 31 28 26 25 26 25 25 25 25 25 25 25
20 20 22 24 26 27 28 30 32 34 36 37 37 36 35 35 33 31 32 34 35 35 37 41 41 42 43 44 46 48 46 45 44 45 43 40 36 31 27 25 25 25 24 24 24 25 26 26 26
20 20 22 24 25 26 25 26 27 29 32 34 35 35 34 33 33 32 33 36 38 39 41 43 44 46 45 45 47 47 43 41 41 42 43 39 35 30 27 24 23 23 24 24 24 25 26 26 26
20 20 21 22 23 23 23 22 22 23 25 28 30 31 32 32 33 34 35 38 41 43 45 46 45 44 43 43 43 39 33 32 33 36 38 35 32 29 25 22 22 23 24 24 24 25 25 26 26
18 18 19 21 21 21 20 18 17 18 21 24 27 30 31 33 34 36 38 41 43 45 45 44 42 41 40 40 40 34 26 23 25 31 34 30 27 25 23 22 23 24 24 24 24 24 25 25 25
17 17 18 20 20 21 20 18 17 18 21 24 28 31 33 35 37 38 41 42 45 45 44 41 39 38 38 37 36 30 23 18 17 21 26 26 24 23 22 22 24 24 25 24 24 24 24 24 24
15 16 17 18 19 20 21 20 21 22 25 28 30 32 34 37 39 41 43 44 45 44 41 38 37 37 38 37 35 31 27 23 18 17 17 19 21 21 21 23 24 25 26 25 25 25 24 24 24
12 13 13 14 16 18 20 20 21 24 27 30 32 34 36 37 38 39 41 41 40 39 39 39 39 39 39 38 37 34 31 28 24 20 19 20 21 21 22 23 25 26 27 27 27 26 25 25 24
7 8 8 9 11 13 15 16 18 22 25 27 28 29 30 30 30 32 32 34 35 37 39 41 41 41 40 39 38 35 32 30 27 25 23 23 23 24 25 26 26 27 28 29 29 28 28 27 26
4 5 6 7 8 9 11 14 16 19 21 22 23 24 25 27 28 29 31 33 35 37 39 41 43 43 43 42 40 39 37 34 32 30 29 29 28 28 29 30 30 30 31 31 32 31 31 30 29
5 5 7 8 8 10 12 14 16 18 20 22 24 26 28 30 31 33 34 36 37 39 41 43 44 44 45 44 43 42 41 39 38 36 35 35 35 35 34 34 34 35 35 35 35 35 34 33 32
8 8 9 10 10 11 13 14 16 18 21 24 27 29 31 33 35 36 36 37 38 40 41 41 42 43 43 44 44 44 44 44 43 42 41 41 41 42 41 40 40 40 39 39 39 38 37 37 36
10 12 13 15 14 14 15 17 19 22 24 27 30 32 34 35 37 37 38 39 40 40 41 42 42 42 43 44 45 46 47 48 48 48 48 47 47 48 48 48 47 46 45 44 43 42 41 41 40
12 13 15 16 16 17 18 20 23 25 28 31 33 35 36 37 38 40 41 43 44 44 45 46 45 44 43 43 44 45 47 48 50 52 53 54 54 54 54 54 53 53 52 50 49 47 46 45 44
14 15 17 17 19 20 22 24 26 29 31 33 35 36 37 39 41 43 45 47 48 49 49 47 44 42 41 42 43 44 45 46 47 48 51 55 58 59 60 60 59 59 58 58 56 54 52 50 49
14 15 17 18 20 23 26 28 29 31 33 34 36 38 40 42 45 47 50 52 52 51 49 48 47 48 49 49 50 51 52 52 52 52 52 52 54 58 61 64 65 65 65 64 63 62 59 57 55
13 15 17 19 22 25 28 29 31 32 33 35 37 40 43 46 48 50 52 52 50 49 48 49 51 54 56 58 59 61 61 60 58 56 55 55 55 55 58 61 65 68 70 70 68 67 65 64 62

GEFSSGP_500_meanwind_024.txt.gz
Wind_Speed
4 4 4 4 5 7 7 7 8 8 8 8 8 6 6 5 6 6 8 9 9 9 8 7 6 6 7 7 8 8 9 9 8 8 8 7 8 8 7 6 6 6 5 6 6 6 6 5 3
6 6 6 5 4 5 8 7 8 8 10 11 11 10 9 7 7 7 7 8 8 8 8 7 7 6 6 6 7 8 8 9 8 9 9 9 9 10 10 10 9 9 8 8 7 6 6 5 3
8 8 8 7 7 8 9 9 9 10 11 13 14 13 11 10 8 8 7 7 7 7 6 6 6 6 6 6 7 7 8 9 9 10 11 12 12 13 13 13 13 12 12 11 10 9 8 7 5
11 10 10 9 11 13 12 12 12 12 13 14 15 15 14 12 9 8 8 8 8 7 7 6 6 7 7 7 8 9 10 10 11 12 13 14 15 15 16 16 16 16 15 15 14 13 11 10 10
13 12 11 11 14 16 15 15 14 14 14 14 15 15 14 12 11 10 9 10 9 9 9 9 9 9 10 11 11 12 13 14 14 15 16 17 18 18 18 19 19 19 19 18 18 17 16 14 13
15 14 13 13 17 18 18 16 16 16 15 14 14 14 14 13 13 12 12 12 12 12 12 13 14 14 14 15 16 17 18 19 19 20 21 22 22 21 21 22 22 22 22 21 21 21 20 19 18
16 16 16 17 19 21 21 19 18 17 16 15 14 14 14 14 14 14 13 13 14 15 16 17 18 18 19 20 21 22 23 24 24 25 25 26 27 26 26 25 25 25 25 24 24 24 23 23 22
17 17 18 20 21 23 23 23 22 20 19 17 15 15 15 15 16 16 16 17 17 18 19 21 22 24 25 26 26 27 28 28 29 29 30 30 30 31 31 30 28 27 27 26 26 26 26 26 26
19 19 19 21 21 24 26 26 25 24 23 21 20 18 17 17 18 19 19 19 20 21 23 25 27 29 30 31 32 32 32 32 33 34 34 34 33 34 35 34 32 31 30 28 27 27 27 27 28
21 20 21 21 21 22 26 28 27 27 27 26 24 22 20 19 19 20 21 22 24 26 27 29 30 31 32 34 36 36 35 33 34 36 37 39 38 38 38 37 36 34 33 32 30 29 28 28 28
22 22 22 22 23 23 25 27 27 28 29 28 27 26 24 23 23 23 24 25 27 29 30 32 32 33 35 36 37 36 35 35 34 35 38 40 40 41 40 40 38 37 35 34 32 31 30 29 29
23 23 23 23 24 23 23 25 26 27 29 29 30 29 28 27 26 26 26 27 29 30 33 34 34 35 36 37 37 37 37 35 34 36 39 40 41 42 42 41 41 39 37 35 34 33 31 30 30
23 23 24 24 23 23 22 23 24 25 27 28 30 31 31 30 29 29 29 30 31 33 34 35 35 36 37 38 38 37 36 35 35 37 38 41 42 44 43 43 42 41 40 38 36 35 33 31 30
21 22 23 23 23 23 22 22 22 23 24 26 28 30 31 31 31 31 31 31 33 34 35 36 36 37 39 38 38 37 35 34 35 36 39 42 43 44 45 44 44 43 41 40 38 36 35 33 31
19 19 21 21 21 22 22 22 22 22 22 24 25 27 28 30 30 31 32 32 34 35 36 37 38 39 39 39 39 38 35 35 35 37 40 41 41 42 44 44 44 44 44 42 40 38 36 33 31
16 14 15 19 19 20 20 22 22 22 22 22 22 23 24 25 27 28 30 31 33 35 37 38 40 41 41 41 40 38 36 35 35 37 38 38 38 39 42 45 45 46 45 43 40 38 36 33 32
8 7 12 17 18 19 20 21 22 22 21 21 20 20 21 22 24 26 29 31 34 36 38 40 41 41 41 41 40 37 36 36 36 36 36 35 33 35 39 41 43 45 44 42 40 39 37 35 34
8 8 11 15 17 18 20 21 22 22 21 21 20 20 21 22 25 27 30 33 35 37 38 39 40 40 40 39 38 37 37 37 36 36 35 32 30 29 33 37 39 42 43 42 40 40 38 37 35
8 8 10 14 15 16 18 18 19 20 20 21 21 21 23 25 27 29 31 33 34 35 36 37 38 38 37 37 37 37 37 37 37 36 33 31 28 27 27 32 36 40 42 41 40 40 39 37 36
7 6 10 13 13 14 15 15 16 16 17 18 19 20 22 24 25 27 28 29 31 33 34 35 36 37 37 37 38 38 38 38 37 36 34 31 28 26 24 28 34 39 40 41 41 39 38 37 36
6 5 9 11 10 10 11 11 13 13 14 16 17 19 21 23 25 27 29 31 32 33 34 36 37 38 39 40 40 40 39 39 38 37 35 33 30 27 26 26 29 33 36 38 40 39 37 36 35
6 9 8 8 9 10 10 13 13 15 17 18 20 21 23 25 27 28 31 32 34 35 36 38 39 40 40 41 42 42 41 40 39 38 37 35 33 31 29 28 28 28 30 33 35 36 35 35 35
8 7 7 8 10 12 13 14 16 17 19 20 21 23 25 27 29 31 33 34 35 35 37 38 39 41 42 43 43 43 43 42 41 40 38 38 36 35 34 33 32 31 31 32 34 34 34 35 35
4 6 8 10 12 13 17 16 20 19 20 22 24 26 28 29 31 32 33 34 35 36 38 39 40 42 44 45 45 45 44 43 42 41 40 39 39 38 38 38 37 36 36 36 37 37 37 36 37
5 6 9 10 11 14 21 20 20 21 22 25 27 28 30 31 32 32 33 34 36 37 39 41 42 43 44 44 44 43 42 41 40 40 41 41 41 41 41 42 42 42 42 42 42 41 41 40 40
7 7 9 10 12 16 21 19 19 22 25 27 28 29 30 31 32 33 35 36 38 39 40 41 42 42 41 40 39 39 39 39 39 40 41 41 43 44 45 46 47 47 48 48 48 48 46 45 44
9 10 11 11 13 13 18 19 20 23 26 27 28 29 30 31 33 35 37 39 40 41 42 42 41 39 37 37 36 36 37 39 40 42 43 44 44 46 48 49 51 53 54 55 55 55 53 52 49
9 9 9 9 11 12 16 22 23 24 25 26 27 29 31 34 36 38 39 40 41 43 43 42 39 37 36 36 36 37 39 41 43 45 47 48 49 50 51 52 54 56 58 59 61 61 61 60 57
8 8 9 10 12 14 15 22 23 24 25 27 29 31 33 35 37 38 39 41 42 43 42 40 38 37 36 37 38 40 43 45 48 49 51 52 53 55 56 57 58 58 60 62 64 66 67 67 65
8 9 10 12 15 17 19 22 22 24 26 28 30 32 34 36 38 39 40 41 42 42 41 39 38 38 38 39 41 44 47 49 51 52 54 56 57 58 59 60 61 63 63 64 66 68 70 71 71

GEFSSGP_500_meanwind_030.txt.gz
Wind_Speed
6 6 7 7 7 10 12 7 6 7 8 8 8 7 9 9 9 10 11 11 10 10 11 10 9 9 8 7 6 6 7 8 9 10 11 11 12 13 14 14 15 15 14 14 13 13 12 11 10
5 5 5 6 9 13 11 9 10 11 12 12 11 11 12 11 11 11 11 11 10 10 10 9 9 8 8 7 7 7 7 8 9 10 11 12 13 14 15 16 17 17 17 16 15 14 13 11 10
5 4 4 5 10 8 9 12 12 12 11 11 14 13 13 13 13 12 12 11 10 10 10 9 9 9 8 8 8 9 9 9 10 11 12 13 14 15 16 17 18 19 18 18 17 16 15 13 11
6 3 2 5 9 8 12 13 10 8 11 9 12 16 15 14 14 14 14 13 12 12 11 10 10 10 10 10 10 11 12 12 13 14 15 16 17 17 17 18 19 19 20 20 20 19 17 16 14
8 4 2 8 8 11 16 15 10 8 11 12 15 18 16 16 15 15 15 14 13 13 13 12 12 12 12 12 13 14 15 17 17 18 19 20 20 20 20 20 20 20 21 21 21 21 21 19 17
11 7 4 4 4 14 16 14 8 9 11 13 14 18 17 16 16 16 16 16 15 15 16 15 16 16 16 16 17 18 20 21 22 23 23 24 24 24 24 24 23 23 22 22 22 23 22 22 21
14 12 9 7 6 14 21 18 12 10 14 15 16 20 20 14 15 17 17 19 19 17 19 19 19 19 19 20 21 21 22 23 24 25 26 27 28 28 28 28 26 26 25 24 24 24 24 24 24
16 15 10 4 5 14 20 18 16 15 17 20 20 23 21 16 17 18 18 19 22 21 20 21 21 21 22 22 23 23 24 25 26 27 28 29 29 29 30 30 30 29 28 27 27 26 25 25 25
17 15 10 3 11 19 24 24 21 19 20 25 23 22 24 22 21 20 20 21 22 24 23 23 23 24 24 24 25 26 26 26 28 29 29 30 30 30 30 31 31 31 31 31 30 29 28 27 27
18 16 11 10 20 26 28 28 24 20 23 28 25 23 26 25 24 24 23 23 23 25 26 26 26 26 27 27 27 28 28 28 30 30 31 32 32 31 31 31 31 32 33 33 32 31 30 29 28
20 19 16 18 22 24 25 22 21 21 26 27 27 26 27 27 26 27 26 26 26 27 28 28 28 29 30 30 30 30 31 31 31 32 33 33 32 32 32 32 31 31 33 33 34 33 32 31 31
21 20 20 22 23 23 22 21 22 22 24 24 26 27 28 28 28 29 29 28 29 29 29 30 30 31 32 33 33 33 34 35 35 35 34 34 33 33 33 34 33 32 33 35 35 35 35 34 33
21 21 21 22 23 23 22 22 23 22 22 23 25 26 27 28 28 30 31 31 31 31 31 31 32 32 34 34 35 36 37 37 38 38 37 37 35 33 33 34 34 34 35 36 37 37 35 35 35
19 19 19 21 22 22 21 21 22 22 21 22 23 25 26 28 29 30 31 32 32 32 32 33 33 34 35 36 37 38 39 39 39 40 40 38 36 34 34 34 35 36 37 37 37 37 36 36 35
15 14 15 17 19 18 17 19 20 20 20 20 21 23 25 26 27 27 28 29 30 31 32 33 34 34 36 37 38 39 40 40 40 40 39 38 36 35 35 35 36 37 37 37 37 36 37 37 36
7 7 11 18 15 12 13 19 20 20 20 21 21 22 22 22 23 24 25 26 27 29 31 32 34 35 37 38 38 39 39 39 39 39 38 36 35 34 34 35 36 36 36 36 37 37 37 37 38
5 14 22 24 16 10 14 21 23 23 24 23 22 21 21 20 21 21 22 24 26 28 30 31 33 35 36 36 37 38 38 38 38 37 36 35 35 35 35 35 36 36 36 34 35 35 35 36 37
17 19 21 17 8 10 18 26 25 23 24 23 21 20 19 19 20 21 23 24 26 28 29 31 33 34 35 36 36 36 36 36 36 36 36 36 36 36 36 35 35 34 34 33 33 34 35 36 36
10 11 12 9 13 15 22 25 22 21 20 18 17 17 17 17 18 20 22 24 25 28 30 31 33 34 35 35 35 36 36 36 37 37 36 36 36 36 36 36 35 34 32 31 32 33 35 35 35
8 10 15 18 20 19 18 19 15 13 12 12 13 14 15 17 18 21 22 24 27 28 30 31 33 34 35 35 36 36 36 36 37 38 38 38 37 38 38 37 36 35 33 32 31 31 31 34 36
10 15 16 17 18 16 15 14 12 11 10 12 14 16 18 19 21 23 26 27 29 30 32 33 34 34 35 36 37 38 39 39 39 40 40 39 39 40 40 39 37 35 34 32 31 31 31 32 34
15 15 14 14 16 18 20 21 14 9 9 13 17 18 21 23 25 26 28 30 31 32 33 34 34 35 37 39 40 41 41 41 41 42 41 41 41 41 40 39 37 35 35 34 33 32 32 31 33
11 10 12 15 21 25 25 20 11 11 14 17 20 22 24 26 27 28 29 30 31 33 35 36 36 37 38 40 42 43 43 43 43 43 42 41 40 40 39 37 36 35 34 34 33 33 33 32 33
7 10 16 19 22 25 21 16 11 16 21 24 25 25 26 27 28 28 29 30 31 33 35 36 37 38 39 41 42 43 43 43 42 42 40 39 38 38 37 37 36 35 35 35 34 34 33 33 33
6 10 17 23 25 23 18 14 11 19 24 26 28 27 27 27 27 28 30 31 32 33 34 36 37 38 39 40 41 41 41 41 40 40 39 38 37 37 37 37 36 36 36 36 36 36 36 36 36
8 10 15 18 21 23 20 18 18 21 23 24 25 26 26 27 29 30 31 31 33 34 35 36 37 38 39 39 39 39 39 39 39 39 39 38 38 38 39 39 39 39 39 39 39 39 40 40 40
9 10 11 11 11 15 21 22 21 22 23 23 24 26 27 28 29 30 31 32 34 35 35 36 37 38 39 39 39 39 39 38 38 38 39 39 40 41 42 43 44 44 44 44 44 43 43 43 44
11 10 9 6 8 8 12 20 22 23 24 25 26 27 28 29 30 31 32 34 34 36 36 37 38 38 38 38 39 39 38 38 38 38 38 39 41 43 44 46 47 48 49 50 50 50 49 48 48
11 10 9 7 8 8 10 22 24 25 25 25 26 28 30 31 32 33 34 35 36 37 38 38 39 39 39 39 39 39 39 39 39 39 40 41 42 43 45 47 49 51 52 54 54 54 53 53 53
10 11 10 10 10 10 10 23 25 26 25 26 28 29 31 32 33 34 35 37 38 38 39 40 40 40 40 40 40 40 40 40 40 41 42 43 44 45 46 48 50 53 55 56 57 58 58 58 57

GEFSSGP_500_meanwind_036.txt.gz
Wind_Speed
3 4 5 5 5 4 6 9 11 11 9 6 4 4 5 6 6 6 6 6 5 5 5 5 5 4 4 4 4 4 4 4 4 5 5 6 7 7 8 9 10 11 12 13 13 14 14 14 14
2 1 3 4 3 3 6 10 12 14 12 9 7 5 6 6 7 6 6 6 6 6 5 5 5 5 4 4 4 4 4 5 5 6 6 7 7 8 8 9 10 11 12 12 13 13 14 14 14
4 2 1 2 0 3 5 9 13 16 15 13 11 10 10 9 8 8 8 7 6 5 6 6 6 6 6 6 6 6 6 7 8 8 9 10 10 11 11 11 11 12 12 13 13 13 14 14 14
6 3 2 3 2 2 5 8 12 16 18 17 16 14 13 11 10 10 9 8 6 6 6 7 7 7 8 9 9 9 10 10 11 11 12 13 13 14 14 14 14 14 14 14 14 14 15 15 14
7 5 5 4 2 2 4 8 14 19 21 22 20 18 15 12 11 11 11 9 8 8 8 9 9 10 11 12 12 12 13 13 13 14 14 14 15 16 16 17 17 18 17 17 17 16 16 16 16
8 6 7 5 4 3 4 10 18 23 25 24 23 20 18 15 13 12 12 11 10 10 10 11 12 12 13 13 14 15 14 15 16 16 16 16 17 17 17 18 19 19 20 20 19 19 18 18 17
10 7 9 9 8 6 8 14 21 25 27 27 25 24 23 20 15 13 13 13 12 11 12 12 13 13 14 14 15 16 16 17 17 17 17 18 18 18 19 19 20 20 21 21 21 21 21 21 20
12 9 13 15 13 9 11 15 21 25 27 28 28 28 26 24 20 15 13 14 13 13 14 15 15 15 16 17 18 18 18 18 19 19 19 19 20 20 20 21 21 21 22 23 23 23 23 23 23
15 12 17 20 19 16 15 18 22 26 28 29 30 30 28 26 24 19 17 16 15 16 17 17 17 18 19 20 21 21 21 21 21 21 22 22 22 22 23 23 23 23 23 23 24 24 25 25 25
16 14 22 25 24 22 20 22 25 27 30 31 31 32 29 27 24 23 21 19 18 18 19 19 20 21 22 23 23 23 23 23 24 24 25 25 25 25 26 26 26 25 25 25 24 24 25 25 26
18 17 24 27 26 25 24 25 27 30 33 34 33 30 28 27 25 24 22 21 20 21 22 21 23 24 26 26 26 25 25 26 26 26 27 28 28 28 28 28 28 28 28 27 27 26 25 26 26
20 21 25 27 27 25 25 25 27 30 31 31 31 30 28 27 25 25 25 24 24 24 24 25 26 27 28 28 27 27 27 27 29 30 30 31 32 31 31 31 31 31 31 30 29 28 28 27 27
22 23 26 28 27 26 25 25 25 27 28 28 28 29 29 28 27 28 27 27 27 27 27 28 28 28 28 29 28 28 29 30 31 32 32 33 33 32 32 32 32 32 32 32 31 31 30 30 29
20 21 22 23 23 23 23 23 23 23 23 24 25 26 27 26 26 26 26 27 27 28 28 28 28 28 28 29 30 31 32 32 33 34 34 34 33 32 32 33 32 33 33 33 32 31 31 31 31
19 19 19 20 21 21 21 20 20 20 20 20 21 22 24 24 24 25 25 25 26 27 27 27 27 28 29 30 32 33 34 34 35 35 35 34 34 33 33 33 33 33 33 34 33 33 32 32 33
17 17 17 18 19 19 20 20 19 20 20 19 19 21 22 23 23 23 24 24 24 24 25 25 26 28 29 31 33 34 34 35 36 36 36 35 35 34 34 34 33 34 34 34 34 34 32 32 32
13 14 14 15 17 19 21 22 22 21 20 18 16 18 19 20 21 21 22 22 23 23 24 25 27 28 30 32 33 34 36 36 37 37 36 35 35 34 34 34 34 34 34 34 34 34 33 32 32
8 9 10 12 15 19 21 23 24 22 20 15 13 13 15 16 17 18 19 20 21 23 25 27 29 30 32 33 34 35 36 37 37 36 36 35 35 35 35 35 35 35 35 35 34 34 34 33 32
8 9 9 10 11 13 16 19 20 19 16 13 10 9 10 11 14 16 17 19 21 24 26 28 30 31 33 34 35 35 36 36 37 37 36 36 36 36 36 36 36 36 37 36 36 35 34 33 33
8 10 10 11 13 14 17 18 16 14 10 8 7 7 8 10 12 14 17 19 21 23 25 27 29 31 32 33 34 34 34 34 35 36 36 36 36 37 36 36 37 37 37 38 38 37 36 35 33
6 10 12 14 16 19 21 21 19 10 7 3 3 3 6 9 12 14 16 18 20 21 23 25 27 28 29 30 31 32 33 33 34 34 35 35 36 36 35 35 35 35 35 36 36 36 36 35 34
8 10 13 14 15 18 20 19 13 9 6 5 4 4 6 9 12 14 16 18 19 21 22 24 25 26 28 29 30 31 32 33 34 34 34 34 34 34 34 33 32 32 33 33 34 34 34 34 33
10 10 12 12 13 15 16 17 14 12 9 8 7 8 8 10 12 15 17 19 20 22 23 24 25 26 28 29 29 30 31 32 33 33 33 34 34 34 34 32 31 31 31 31 31 31 32 32 32
10 9 10 10 11 11 12 14 14 12 12 11 10 10 11 13 15 17 19 21 22 23 24 25 27 28 29 30 31 31 32 33 33 34 34 34 35 35 35 34 32 31 31 31 31 31 31 32 32
8 9 9 8 8 9 10 11 13 12 11 11 11 12 14 17 19 21 23 24 26 27 28 29 30 31 32 32 33 33 34 34 34 35 35 35 36 37 37 36 35 34 32 32 32 32 32 32 32
7 8 9 9 10 9 9 10 12 11 11 12 14 16 18 21 23 25 27 29 30 31 32 33 34 35 35 35 35 35 35 35 35 36 36 37 37 38 38 39 38 37 36 34 34 34 34 33 33
8 8 8 8 9 9 9 9 12 12 13 15 18 20 22 24 27 29 31 33 34 35 35 36 36 36 35 35 35 35 35 35 36 37 38 38 39 39 39 40 40 40 39 38 37 36 37 36 36
12 10 8 7 7 9 11 12 15 16 17 18 20 23 25 27 30 32 34 35 36 36 37 37 37 36 36 36 35 35 35 36 37 38 39 39 39 40 40 40 41 41 41 40 40 39 39 39 39
9 8 8 8 10 12 16 18 18 19 19 21 23 25 27 29 31 34 35 35 36 36 36 37 37 37 36 36 36 36 37 38 39 39 40 40 40 40 40 40 40 40 41 41 41 41 41 41 41
8 10 10 11 13 16 19 20 20 20 21 23 25 26 27 29 31 33 34 35 35 35 36 36 36 36 37 37 37 38 39 40 40 41 41 41 40 40 39 39 39 40 41 42 43 43 44 44 44

GEFSSGP_500_meanwind_042.txt.gz
Wind_Speed
4 4 4 4 3 3 3 2 4 7 9 8 9 11 12 12 12 11 10 9 8 7 7 6 6 6 5 5 5 5 5 5 5 5 4 4 4 4 5 5 6 7 7 7 7 7 7 7 7
7 6 6 7 7 7 6 6 4 5 7 8 9 11 12 12 13 12 11 10 8 7 7 6 5 5 5 5 5 5 6 6 6 7 7 7 7 8 9 9 9 9 9 9 9 9 8 6 5
9 8 8 9 10 10 8 8 6 5 5 6 9 11 12 13 14 13 12 10 9 8 8 6 5 5 6 6 7 7 7 8 8 8 9 10 10 11 12 12 12 12 12 12 12 11 10 9 7
10 11 11 12 12 12 10 9 9 8 7 7 9 12 13 14 14 14 13 11 11 10 10 8 7 7 7 8 9 9 9 10 10 11 11 12 13 13 14 14 14 14 14 15 15 15 13 12 11
12 13 14 15 15 14 12 11 11 9 8 9 10 13 15 15 15 15 14 13 12 12 11 10 10 10 10 10 10 11 11 11 12 12 13 13 14 15 15 15 15 15 16 17 17 17 17 15 14
14 15 16 17 18 16 15 13 12 10 9 10 13 15 16 16 16 16 16 15 14 13 12 12 12 12 12 12 12 12 13 13 13 14 14 14 14 15 16 17 17 17 18 18 19 19 19 19 18
16 17 18 21 21 20 18 16 15 13 11 12 14 16 18 18 18 18 17 16 15 15 14 14 14 14 14 14 14 14 14 15 15 15 15 15 15 16 17 18 19 19 19 20 20 20 21 21 20
18 18 21 24 25 23 21 19 18 17 14 14 15 18 19 20 20 19 18 17 17 18 18 17 18 18 17 17 16 17 17 18 17 17 17 17 17 18 19 20 21 21 22 22 22 23 23 23 22
20 20 24 27 27 26 25 23 21 21 18 17 18 19 21 21 21 20 19 19 19 20 21 21 21 21 20 20 20 21 21 21 21 21 20 20 20 20 21 22 23 23 24 23 24 24 24 24 24
22 22 26 31 31 30 28 26 25 24 22 22 22 23 23 24 24 22 21 21 21 23 24 24 24 23 23 24 25 25 25 25 26 25 23 22 21 22 23 23 25 25 26 26 26 26 26 25 25
25 24 28 33 35 34 32 31 29 28 27 26 26 26 26 26 25 24 23 22 22 23 25 25 24 24 24 25 26 27 27 28 28 27 25 24 23 23 25 26 27 27 28 28 28 27 27 28 27
27 27 30 33 35 36 35 34 33 32 31 30 29 29 28 27 26 24 21 21 20 21 23 23 24 24 23 24 25 26 26 26 27 25 24 25 25 25 27 27 28 29 29 29 28 28 29 29 29
27 27 29 31 34 36 36 36 35 35 34 33 32 31 29 28 25 22 20 19 19 19 20 21 23 23 24 25 25 25 26 26 25 26 27 27 27 27 29 30 30 30 30 30 29 29 30 30 30
23 24 26 28 32 34 35 35 35 34 35 34 33 31 29 27 24 22 19 18 18 18 20 21 22 23 24 25 26 26 27 27 28 28 29 29 30 30 30 31 31 31 31 31 31 30 30 30 30
18 19 21 24 28 31 33 33 34 33 33 33 32 30 29 27 25 23 20 19 18 19 20 21 23 24 25 26 27 28 28 28 28 28 29 29 30 30 30 31 32 32 32 32 32 32 31 31 30
15 16 18 20 23 27 29 30 30 30 31 31 30 30 28 27 25 23 22 20 19 19 20 21 22 23 24 25 26 27 27 28 28 29 30 30 31 31 31 32 32 32 32 32 32 32 31 31 30
13 14 15 17 18 21 23 25 25 26 28 28 28 28 27 25 23 21 20 19 19 19 19 20 22 23 25 26 27 27 28 29 29 30 30 31 31 31 32 32 32 33 33 33 33 32 32 32 31
10 12 13 13 14 15 17 19 21 23 24 25 26 25 24 23 22 20 19 18 18 19 20 21 23 25 26 26 27 28 28 29 29 30 30 31 31 31 32 32 33 33 33 34 34 34 33 33 33
8 9 9 9 9 10 13 15 17 18 20 21 21 21 21 20 19 18 17 17 18 19 21 22 24 25 26 27 28 29 29 30 30 30 30 30 31 31 32 32 33 34 34 35 35 35 35 35 34
5 5 5 6 6 8 9 11 11 12 13 13 13 13 14 15 14 14 15 17 19 20 21 23 24 26 27 28 29 30 30 31 31 30 30 30 30 30 31 31 32 33 33 34 34 34 35 35 35
3 4 3 3 4 4 6 6 6 6 5 3 4 5 8 8 10 12 13 16 17 19 21 23 25 26 27 28 29 30 31 31 31 31 30 30 29 29 30 30 31 32 32 33 33 34 34 34 35
4 3 2 3 3 3 5 6 8 7 4 4 2 3 4 5 7 10 12 15 17 19 21 23 24 26 27 28 29 29 30 30 31 31 30 30 30 29 29 29 30 30 31 32 32 33 33 33 34
5 4 3 3 2 2 4 6 8 9 7 5 4 4 4 5 7 10 13 15 17 19 20 21 22 24 25 25 26 27 28 28 28 28 29 29 29 29 29 29 30 30 31 32 32 32 32 32 33
5 4 3 3 2 1 2 4 5 6 6 4 4 5 6 7 9 11 13 15 16 17 18 20 21 22 23 23 24 25 26 26 26 27 28 28 29 29 30 31 32 32 33 33 34 34 34 34 34
6 5 5 4 3 3 2 3 4 5 5 5 6 7 7 8 9 11 12 14 15 16 18 19 21 22 23 24 25 25 25 26 26 27 28 29 30 31 32 33 34 34 35 36 36 36 36 36 35
7 7 7 6 5 4 4 4 6 7 7 8 8 8 8 9 10 11 12 13 15 16 18 20 22 23 25 25 26 26 26 26 27 27 28 30 31 32 34 35 36 36 37 37 37 38 38 38 37
8 9 8 6 5 4 4 5 7 9 9 9 9 8 9 9 10 12 13 14 16 18 20 22 23 24 25 26 27 27 28 28 28 29 30 31 33 34 35 37 37 38 38 38 38 38 39 38 39
9 10 9 6 5 4 4 4 6 8 9 9 9 9 9 10 11 12 14 17 19 21 23 24 25 26 27 27 28 29 30 31 31 32 33 34 35 36 37 37 38 39 39 39 39 39 39 39 39
9 10 9 8 7 6 5 5 7 8 9 10 10 10 11 12 13 15 18 20 22 24 25 26 27 28 28 30 31 31 33 34 34 35 36 37 37 38 38 38 38 39 39 38 38 38 38 38 38
10 11 11 9 8 7 7 8 8 9 10 11 12 12 13 14 16 18 21 23 24 26 27 28 29 30 31 32 33 34 35 36 38 38 39 39 40 40 40 39 39 38 38 37 37 37 37 37 37

GEFSSGP_500_meanwind_048.txt.gz
Wind_Speed
6 5 4 4 3 4 4 4 4 3 1 0 1 2 3 4 5 4 4 4 4 4 4 4 3 2 2 3 3 3 3 3 2 2 2 2 2 3 3 3 4 4 4 4 4 5 4 4 4
8 7 7 7 6 7 10 8 7 5 4 3 1 1 1 2 4 4 4 4 4 4 5 5 5 4 5 5 5 5 5 5 5 5 5 5 5 6 6 6 6 6 6 6 6 6 6 6 5
11 11 11 10 10 11 12 11 9 8 6 5 4 2 2 3 4 4 5 5 5 5 6 7 7 7 7 7 7 8 8 8 8 8 8 8 8 8 8 8 8 8 8 8 8 8 8 8 8
14 15 15 14 15 14 14 13 12 10 8 7 6 4 4 5 5 6 6 7 6 7 8 8 9 10 10 11 11 11 11 11 10 11 10 11 10 10 10 10 10 9 9 9 9 10 10 10 10
16 17 17 18 19 18 16 15 14 12 11 9 8 7 7 7 7 7 8 9 9 9 10 11 12 12 13 13 13 13 12 12 12 12 12 12 12 12 12 11 11 11 11 10 10 11 11 11 11
18 19 19 19 23 21 19 17 16 15 14 13 11 10 9 9 9 9 10 11 12 12 13 14 14 15 15 15 15 15 15 15 15 15 15 14 14 14 13 13 12 12 12 11 11 11 12 12 13
21 21 23 24 25 24 23 20 18 17 17 16 14 13 11 11 11 12 13 14 15 16 16 17 18 18 19 19 19 18 18 18 18 18 17 17 16 16 16 15 14 14 13 13 13 14 14 14 14
23 24 25 26 27 27 25 23 21 20 19 18 17 16 15 14 14 15 16 17 18 19 19 20 21 21 21 21 22 22 21 21 22 21 20 21 20 19 19 18 17 16 16 15 15 15 15 15 15
26 25 26 28 29 29 27 25 23 22 21 21 21 19 18 17 17 18 19 20 21 21 21 22 23 24 24 24 24 24 24 24 25 24 24 24 24 23 22 21 19 18 18 17 17 16 16 16 17
26 26 28 30 30 30 29 27 25 24 23 24 24 23 21 20 21 22 23 23 22 22 23 23 24 24 25 25 25 25 26 26 26 26 26 25 24 23 23 23 21 20 20 19 19 19 19 18 18
24 25 28 29 29 29 29 28 27 26 26 25 26 24 24 23 24 24 25 25 24 23 23 23 23 24 24 24 24 24 24 24 24 24 23 23 23 22 22 23 23 22 22 21 21 21 21 21 20
18 21 24 26 27 27 27 27 27 27 27 27 27 26 25 25 26 26 26 25 24 23 23 23 22 22 21 22 21 20 21 21 22 22 21 21 21 21 22 22 22 23 23 22 22 22 22 22 22
11 15 18 21 23 24 24 25 25 26 26 27 27 28 28 27 27 27 26 25 23 23 23 22 21 20 20 19 19 19 19 20 19 19 20 21 21 21 22 22 22 23 23 24 24 24 24 24 24
8 9 12 15 18 19 20 21 23 24 25 26 27 28 28 28 27 26 25 24 23 22 22 21 20 18 18 19 19 19 19 19 19 19 20 21 21 22 23 23 24 24 25 26 26 27 27 26 26
7 7 7 10 12 14 16 17 20 22 23 24 26 26 27 26 26 25 23 22 21 20 19 18 17 17 17 17 17 17 18 18 19 20 21 21 22 23 24 24 25 25 26 27 27 28 28 28 27
8 7 7 7 8 10 12 15 17 19 21 23 24 24 24 24 24 22 21 20 18 17 15 14 14 14 15 15 16 17 17 18 19 20 20 21 22 23 24 24 25 25 26 27 27 28 28 28 28
10 7 7 8 7 9 11 14 16 19 21 22 23 23 23 23 22 21 19 17 16 14 12 12 12 13 13 14 15 16 17 18 18 19 20 20 21 22 22 23 24 25 25 26 26 27 27 28 28
7 7 9 9 9 10 12 15 17 18 18 20 21 22 22 21 21 19 16 14 12 11 10 11 12 12 14 15 16 17 17 18 18 19 20 20 21 21 22 22 23 24 24 24 25 25 26 27 28
7 8 9 10 10 11 12 14 15 15 15 16 17 17 17 18 16 13 11 10 9 9 10 11 13 13 15 16 17 18 19 19 19 20 20 20 21 21 22 22 22 23 23 23 24 25 25 26 27
8 8 9 10 10 11 11 12 12 12 12 12 11 10 9 7 7 7 7 7 8 9 10 11 13 14 15 16 18 19 20 20 20 20 20 21 21 21 21 22 22 22 23 23 23 24 24 25 25
8 8 9 10 9 9 10 10 10 9 9 6 4 3 2 2 2 3 4 5 7 9 10 12 13 15 16 18 19 19 19 20 20 20 20 20 20 20 20 20 21 21 22 23 23 24 24 25 26
7 8 8 8 8 9 9 10 10 10 10 8 6 4 4 3 3 4 4 6 8 10 12 13 15 16 17 18 18 18 18 18 18 18 18 18 18 18 18 18 19 20 21 22 23 24 25 26 27
7 7 7 8 8 8 9 8 9 10 10 9 8 8 7 7 6 6 7 8 10 12 14 15 16 17 17 17 17 17 17 17 17 17 17 17 16 17 18 18 19 20 21 22 23 24 26 27 28
8 8 8 8 8 9 9 8 9 9 9 9 9 9 8 9 8 8 9 11 12 14 15 15 15 15 16 16 17 17 17 17 18 18 18 18 17 17 18 19 20 21 22 23 24 26 27 28 30
8 7 7 8 8 10 10 9 10 10 9 9 10 10 10 10 10 11 12 13 14 14 14 15 15 16 16 16 16 17 17 18 18 18 19 19 19 20 20 21 21 22 23 24 26 27 29 30 31
8 6 5 4 6 9 10 10 11 10 10 10 10 10 10 10 10 11 12 13 14 14 15 15 15 16 16 16 17 17 18 19 19 19 20 21 22 23 23 23 24 25 26 27 28 29 30 31 32
9 7 6 6 6 6 8 9 10 10 10 10 10 10 10 10 11 11 12 13 14 14 15 15 16 16 17 17 18 19 20 20 21 21 22 23 24 25 26 27 27 28 29 29 30 31 31 33 34
8 8 6 4 4 5 9 10 11 11 11 10 10 10 10 11 11 12 13 13 14 14 15 16 16 17 17 18 19 20 21 22 23 24 25 25 26 27 28 29 30 31 32 32 33 33 33 34 35
10 9 6 5 6 4 7 10 12 11 11 10 10 10 11 11 12 13 13 14 15 15 16 16 17 18 19 20 21 22 23 24 25 25 27 28 29 30 31 33 33 34 35 35 35 35 35 35 35
11 10 9 7 9 9 8 11 14 12 11 10 10 11 12 12 13 14 14 15 16 16 17 18 18 19 20 22 23 24 25 26 27 28 29 30 32 33 34 36 36 37 38 38 37 37 36 35 35

GEFSSGP_500_meanwind_054.txt.gz
Wind_Speed
7 6 6 7 7 7 5 6 1 9 8 8 7 7 7 7 7 4 4 4 4 5 5 5 5 5 5 5 5 6 6 6 7 7 7 7 8 8 8 8 9 9 9 8 8 7 7 7 7
8 7 8 8 9 12 13 3 3 11 11 10 9 8 8 8 7 5 4 4 5 5 6 6 7 7 7 7 7 8 8 9 9 9 9 9 10 10 10 10 11 10 10 10 9 9 8 8 8
10 10 9 9 9 12 16 9 11 12 13 13 12 10 9 8 7 5 5 5 5 6 7 7 8 8 9 9 10 10 11 11 11 11 11 11 12 12 12 12 12 12 11 11 11 10 9 9 9
13 13 12 11 8 11 15 16 15 15 15 15 14 11 9 8 7 6 6 6 6 7 8 9 10 11 11 12 12 13 13 13 13 13 13 13 13 14 14 14 13 13 13 13 12 11 11 10 10
16 16 15 13 9 18 20 18 17 19 17 15 15 12 9 8 7 7 7 7 8 9 10 10 11 12 13 13 14 15 15 15 15 14 14 15 15 15 15 15 15 15 14 13 13 12 11 11 10
19 18 17 12 11 23 25 18 17 21 20 19 17 12 10 8 7 7 8 8 9 10 12 12 13 14 14 15 16 17 17 17 17 17 17 17 17 18 18 17 17 16 15 15 14 13 13 12 12
21 21 19 14 13 23 24 17 20 24 24 21 17 13 10 9 9 9 9 10 11 13 14 15 15 15 16 17 18 19 19 19 19 20 19 19 19 20 20 20 20 19 18 17 16 15 15 14 14
21 22 20 15 13 22 26 23 22 23 22 20 15 14 11 11 11 11 11 13 13 14 15 16 16 17 18 18 20 21 22 22 21 22 22 22 22 23 23 22 22 22 20 20 19 17 16 16 15
19 19 17 12 15 24 27 26 22 22 24 20 19 17 14 13 14 14 15 16 17 17 17 18 18 18 19 19 21 22 22 23 23 24 25 25 25 24 24 24 24 24 22 21 21 20 19 18 17
14 16 13 17 23 27 28 27 23 20 22 24 21 18 15 16 16 17 17 18 19 19 20 19 19 19 19 19 21 21 21 20 21 22 22 22 24 23 22 22 22 22 22 22 22 22 21 20 19
11 13 18 23 26 29 28 24 24 24 22 23 19 16 17 18 18 20 19 19 20 20 21 21 20 20 19 19 20 20 19 20 20 19 19 19 20 20 21 21 21 21 21 21 23 22 22 21 20
8 11 16 20 22 24 24 23 23 24 26 24 17 13 16 19 20 21 21 21 20 21 21 20 20 20 19 20 19 18 18 17 18 17 17 18 18 19 19 20 21 20 19 19 21 21 21 20 20
8 10 12 13 15 16 18 19 20 23 22 21 17 15 17 20 21 22 22 22 21 21 20 19 19 19 19 19 17 16 16 17 16 16 17 18 18 17 17 18 18 18 18 19 20 21 21 21 21
6 8 10 9 9 10 11 14 18 20 20 19 19 18 20 20 21 22 22 22 21 20 19 18 18 18 19 17 15 15 15 16 16 17 18 18 18 18 18 18 19 19 19 19 20 20 21 22 22
8 9 9 7 7 6 9 15 19 18 14 16 18 19 20 21 21 22 21 20 20 19 18 17 17 17 16 14 14 14 15 15 16 16 17 19 19 19 20 19 20 20 20 21 21 21 21 22 22
13 14 13 11 7 8 11 17 17 12 11 14 18 19 20 20 21 21 20 20 19 18 17 16 15 15 13 12 12 14 14 15 16 17 18 19 19 20 20 20 20 20 21 20 21 21 21 22 23
16 18 17 13 10 10 14 17 14 10 9 12 16 19 20 20 20 20 19 18 17 17 16 14 13 11 11 11 12 13 14 15 16 17 18 19 19 20 20 20 20 21 21 21 21 21 22 22 23
15 16 16 15 12 10 12 14 13 10 9 11 15 17 19 19 19 19 18 16 14 13 12 10 10 10 11 11 11 12 13 14 15 16 17 18 18 19 20 20 20 21 21 20 21 21 21 22 22
10 12 14 14 11 10 11 12 12 11 12 10 12 13 14 16 17 16 15 13 11 10 9 8 8 9 9 9 10 11 12 13 14 14 14 15 16 17 18 18 18 19 19 19 20 20 21 21 21
11 10 12 13 11 10 10 11 12 11 11 9 8 7 7 9 12 10 9 8 8 7 7 6 6 6 7 8 9 10 10 11 11 12 13 14 15 16 16 16 17 17 17 17 18 18 19 20 21
12 11 12 12 12 11 9 9 13 12 12 11 9 6 2 1 2 4 4 4 3 3 3 3 4 5 6 7 9 10 11 11 12 12 13 14 15 15 15 16 16 16 16 16 17 17 18 19 20
13 12 10 9 9 9 10 12 11 12 11 10 10 9 6 5 4 3 2 2 2 1 0 2 4 5 7 9 10 11 12 13 14 14 15 15 16 16 16 16 16 16 16 17 17 17 18 19 20
11 9 7 8 9 9 6 11 12 10 11 9 8 8 6 6 5 5 4 4 4 3 3 4 6 8 9 10 11 13 14 14 15 16 16 16 16 16 17 17 18 18 18 18 19 19 20 20 21
9 9 11 13 12 7 10 9 12 12 11 9 8 7 6 5 5 5 5 5 4 4 5 6 8 9 11 12 13 14 15 16 17 17 17 17 17 17 18 19 19 20 20 20 21 21 22 23 24
10 9 15 18 16 12 14 9 11 12 11 10 8 6 6 5 5 5 5 5 5 6 8 9 10 11 13 14 15 15 16 17 18 19 19 19 19 19 19 20 20 21 22 22 23 24 25 25 26
11 7 11 12 14 11 7 9 13 12 12 11 9 8 7 6 6 6 6 7 7 8 9 10 12 13 14 15 16 17 17 18 19 19 19 19 20 20 20 21 22 23 24 25 26 26 27 28 29
9 7 8 7 7 8 4 9 12 11 13 13 12 10 9 8 7 7 7 8 8 9 10 12 13 14 15 16 17 18 19 20 20 20 20 20 20 21 21 23 24 25 26 27 28 29 30 30 31
8 7 7 4 6 10 9 6 9 16 17 16 14 12 11 10 10 10 10 10 10 11 12 13 14 15 16 17 17 18 19 20 20 21 21 21 21 22 24 25 26 28 29 30 31 32 32 33 34
9 9 7 6 7 7 12 9 11 16 19 19 16 14 13 13 12 12 12 12 12 12 12 13 14 15 16 18 19 19 20 20 20 21 21 22 23 24 26 27 29 30 31 32 33 34 35 36 37
8 9 10 9 10 8 9 12 12 15 20 21 19 18 16 16 16 15 14 13 13 13 13 14 15 16 17 19 20 21 21 22 22 22 22 23 24 26 27 29 31 32 33 34 35 36 37 38 38

GEFSSGP_500_meanwind_060.txt.gz
Wind_Speed
9 9 9 9 9 9 9 10 10 9 8 5 4 4 5 4 3 1 1 2 2 3 3 2 2 2 2 1 0 0 2 3 4 5 6 6 7 8 8 9 9 10 10 10 10 9 9 8 8
12 11 11 11 10 9 10 13 12 10 8 6 2 3 4 3 2 2 3 3 2 3 3 2 2 2 1 1 1 1 2 4 5 6 6 7 8 8 9 9 10 10 10 11 11 11 10 9 8
15 14 13 12 11 10 11 12 13 11 11 9 6 4 5 3 3 3 3 3 2 2 2 2 2 1 1 2 2 3 3 5 5 6 7 7 8 9 10 10 11 11 11 11 12 12 11 10 8
17 16 15 13 12 12 14 13 14 14 14 15 10 7 8 5 5 4 3 2 2 2 1 1 1 2 2 3 4 4 5 6 7 8 8 9 10 10 11 11 12 12 12 12 13 12 12 11 9
19 18 16 14 14 16 17 16 15 18 18 15 13 11 10 7 5 5 3 2 2 1 1 1 2 3 4 4 5 6 7 8 9 9 10 11 11 12 13 13 14 14 14 14 14 13 13 12 11
20 19 16 14 16 18 19 18 19 20 20 17 16 14 10 8 7 6 4 3 2 1 2 3 4 5 6 6 7 8 9 10 11 12 13 13 14 14 15 15 16 16 16 16 16 15 15 14 13
19 18 17 15 17 20 19 19 21 22 24 24 21 16 9 7 8 8 6 4 3 3 4 5 6 7 7 8 9 10 12 13 14 15 16 16 16 17 18 18 18 18 18 18 18 18 17 16 15
18 18 17 17 20 22 21 19 21 23 25 25 23 20 17 11 10 9 8 5 4 5 6 7 8 9 9 10 11 12 14 15 16 17 17 17 18 18 19 20 20 20 20 20 20 20 20 18 17
16 16 16 20 22 24 22 22 24 25 24 24 22 19 19 15 13 11 9 7 7 7 8 9 10 11 11 11 13 14 15 16 17 17 17 17 17 18 19 19 19 19 20 19 19 20 21 20 19
13 13 15 19 21 23 23 25 27 26 26 26 23 20 20 18 15 12 10 9 8 9 9 11 12 12 12 13 13 14 15 16 17 17 17 17 17 17 17 17 17 18 18 18 19 19 20 20 20
8 8 11 15 17 20 22 24 26 28 28 26 24 23 21 20 18 15 13 10 9 9 10 11 12 12 13 13 14 14 15 16 16 16 16 15 15 15 16 16 16 17 17 18 18 17 17 18 19
7 6 7 11 14 18 21 21 23 25 26 25 24 22 21 18 16 16 14 11 9 9 10 11 11 12 12 13 13 14 14 14 14 14 14 14 14 14 14 14 15 15 15 15 16 16 16 17 17
11 9 8 9 12 15 17 19 21 22 23 23 23 23 20 18 16 14 14 11 10 11 11 12 12 12 12 13 13 13 13 12 12 13 13 13 14 14 14 14 15 15 14 14 14 14 15 16 16
11 11 11 11 13 14 16 17 18 19 19 17 18 20 19 17 15 15 12 10 10 11 11 11 11 11 12 12 12 12 12 11 11 11 12 12 13 13 13 14 14 14 15 15 15 15 15 16 16
10 12 12 13 13 12 13 14 15 15 16 17 17 18 17 16 14 13 11 10 11 11 10 10 10 11 11 10 11 10 9 9 10 11 11 12 12 12 12 13 13 14 14 15 15 15 15 16 16
12 13 14 14 14 13 12 12 13 13 13 14 13 11 12 14 11 10 9 11 11 10 10 11 10 10 10 9 8 8 8 9 10 11 11 11 12 12 12 12 13 13 13 13 14 14 15 16 16
13 15 15 15 14 14 12 12 14 13 13 12 11 9 9 9 9 9 8 11 11 11 11 10 9 8 8 7 7 7 7 8 9 9 9 9 10 10 10 10 11 11 12 12 13 13 14 15 16
15 15 15 15 14 14 13 13 14 14 12 10 8 5 6 5 7 8 7 8 10 9 9 8 6 6 5 5 5 6 6 7 7 7 7 8 9 9 9 9 10 10 11 11 11 11 12 13 14
15 15 15 15 14 13 13 13 14 13 12 10 7 4 1 2 5 6 6 7 8 7 7 7 4 4 4 3 3 4 4 5 6 6 7 7 8 8 8 9 9 9 10 10 10 10 11 12 13
14 15 16 15 14 14 13 12 11 11 11 10 8 6 4 2 2 5 6 6 6 6 5 5 3 2 2 2 2 2 3 4 5 6 7 7 7 8 8 9 9 9 9 9 9 10 10 11 11
13 15 16 15 14 13 11 10 9 8 10 10 9 7 5 5 3 2 3 6 6 5 5 4 4 2 2 1 1 2 3 4 5 6 7 7 8 8 9 9 10 10 10 10 10 11 11 11 12
13 12 12 13 13 12 9 7 5 7 9 10 9 8 8 7 6 5 5 6 6 5 5 5 4 3 2 1 1 2 3 4 5 6 7 8 9 9 10 10 10 11 11 11 12 12 13 13 13
11 10 9 10 11 9 5 5 5 6 8 9 9 8 8 8 7 7 7 6 6 5 5 5 4 3 1 1 2 2 3 5 6 7 9 10 10 11 11 11 11 12 12 13 13 14 14 15 15
10 10 8 7 8 7 4 5 6 6 8 8 9 8 8 8 7 7 7 7 6 5 5 4 3 2 1 1 2 3 4 6 7 8 9 10 11 12 12 13 13 14 14 15 16 16 17 17 18
10 10 9 7 6 6 3 3 5 5 7 8 8 7 7 7 6 5 5 5 5 4 3 2 2 1 1 2 3 4 6 7 8 9 9 10 11 12 13 14 14 15 16 17 18 18 19 19 20
10 11 11 9 8 7 4 0 2 4 5 6 6 6 5 5 4 3 2 2 3 3 2 2 1 1 2 3 4 6 7 8 9 10 11 11 12 13 13 14 15 16 18 19 20 20 21 22 22
11 11 12 11 10 9 6 2 1 2 4 5 4 3 3 3 2 1 1 2 2 3 3 2 2 3 3 4 5 7 8 9 10 11 12 12 13 14 15 16 17 19 20 21 22 22 23 24 25
13 12 13 13 12 10 7 5 5 4 3 3 3 2 2 2 1 1 2 3 3 4 4 4 4 5 5 6 7 9 10 11 11 12 13 14 15 16 17 18 19 21 22 24 25 25 26 26 27
16 15 14 13 12 13 12 9 8 8 5 4 2 2 1 1 1 1 3 4 4 5 5 5 6 7 8 9 10 11 12 13 14 15 16 17 18 19 20 21 22 24 25 26 27 27 28 29 29
16 15 14 13 12 13 13 12 10 9 7 6 5 4 4 4 3 3 4 5 5 6 7 8 8 9 10 11 12 13 14 15 16 17 18 19 20 21 23 24 25 26 27 28 29 29 30 31 32

GEFSSGP_500_meanwind_066.txt.gz
Wind_Speed
12 11 11 12 13 14 14 14 15 14 12 9 6 5 4 4 8 8 7 6 5 5 6 7 6 4 4 3 3 3 2 1 1 1 2 2 3 4 5 5 6 7 7 8 8 8 7 7 6
14 13 14 14 15 16 17 17 17 17 15 12 8 6 5 5 7 8 8 6 6 7 7 7 6 5 4 3 3 2 1 1 1 2 3 4 4 5 6 6 7 7 7 8 8 8 7 7 6
15 15 16 17 18 19 19 19 19 18 17 16 12 7 6 5 6 7 8 7 6 7 8 7 6 5 5 4 3 2 1 2 3 3 4 5 6 7 7 8 8 8 9 9 9 8 8 7 6
17 17 17 19 20 21 21 21 21 21 20 17 14 9 6 6 7 8 8 8 8 8 9 7 6 5 5 4 4 3 3 3 4 5 5 6 8 9 9 10 10 10 10 10 10 9 9 7 6
18 18 18 20 21 22 24 23 23 22 20 18 15 12 8 6 6 9 10 10 10 10 9 8 6 5 4 4 4 4 4 5 6 7 8 9 10 11 12 13 13 13 12 12 11 10 10 9 8
18 18 19 21 22 23 25 25 24 23 20 19 17 14 10 7 6 9 11 11 11 11 10 8 6 5 4 5 5 5 6 7 8 9 10 11 12 13 14 14 15 15 15 14 13 12 11 10 9
18 19 19 20 22 24 25 25 25 24 22 20 17 15 11 9 8 10 12 12 12 11 10 9 7 6 5 6 6 7 8 9 10 11 12 13 14 15 15 15 15 16 17 16 15 14 13 12 11
18 19 19 20 21 23 24 25 24 23 22 20 18 15 13 11 10 11 14 14 13 12 11 9 8 7 7 7 8 9 10 11 12 13 13 14 15 16 16 16 16 17 17 17 16 15 14 14 13
17 17 18 19 19 20 22 22 23 23 22 21 19 16 14 12 12 14 15 15 14 14 12 9 8 8 8 9 9 10 11 12 13 14 14 15 15 16 16 16 16 16 16 16 16 15 15 15 13
15 15 15 16 17 17 18 20 20 21 21 20 19 18 16 15 15 16 16 16 16 16 14 11 9 9 9 10 10 11 12 13 13 14 14 15 15 15 15 15 15 15 15 15 15 15 15 14 13
13 13 13 14 15 16 16 18 17 18 20 19 18 17 15 15 16 18 19 19 17 16 15 12 10 10 11 11 11 12 13 13 13 13 13 14 14 14 13 13 13 14 14 14 14 15 15 14 13
12 12 12 13 14 15 15 16 16 17 18 18 17 16 16 16 17 19 20 20 19 16 15 13 12 11 11 11 11 12 12 12 12 12 12 12 12 12 12 12 13 13 12 12 13 13 14 14 14
12 12 12 13 14 15 15 15 15 16 16 16 16 15 16 17 18 19 21 20 19 17 16 15 13 12 11 11 11 11 12 12 12 12 12 11 11 11 11 12 12 12 12 12 12 13 13 14 14
13 13 13 14 14 15 15 15 15 16 15 15 14 14 14 16 17 19 21 22 20 17 15 14 13 11 10 10 10 11 10 11 11 11 11 10 10 10 10 11 11 11 12 12 12 13 13 13 13
12 13 13 14 14 15 15 16 16 16 15 14 13 12 12 14 16 19 21 20 18 16 14 13 11 10 9 9 9 9 9 9 10 10 10 9 9 9 9 9 10 10 10 11 11 12 12 12 13
12 12 13 15 15 15 16 17 16 16 16 14 13 11 9 12 15 18 20 19 16 15 14 13 11 10 8 8 8 8 8 8 8 7 7 7 6 7 7 8 8 8 9 9 10 11 11 12 12
13 13 14 15 14 15 16 17 18 17 16 13 11 7 5 9 12 13 16 17 16 15 14 13 11 9 7 6 6 6 6 5 4 4 5 5 5 5 6 7 7 7 8 9 9 10 10 11 11
13 14 14 15 15 15 17 17 16 16 14 11 8 4 3 6 8 10 13 14 14 13 13 12 10 8 7 6 5 4 3 2 2 3 3 4 5 5 6 6 6 7 7 8 8 9 10 10 10
13 14 14 15 15 15 16 15 15 14 13 10 7 3 1 4 7 9 11 12 13 13 12 12 10 9 7 5 4 2 1 1 2 2 3 4 5 5 6 6 6 6 7 7 7 8 9 9 9
14 13 13 14 14 16 14 14 13 13 11 9 7 4 2 2 5 8 9 10 10 12 13 11 9 7 6 5 4 2 1 1 2 2 3 4 4 5 6 6 6 7 7 7 7 8 8 9 9
14 14 13 14 14 14 13 12 12 11 9 8 6 5 3 3 4 6 7 9 10 11 12 11 8 8 6 4 3 2 1 1 2 3 3 4 4 5 5 6 6 6 6 7 8 8 9 9 10
14 14 13 13 13 12 12 11 10 10 9 8 6 5 4 5 4 4 6 9 11 12 12 10 9 8 6 5 4 3 2 2 2 3 3 4 4 4 5 5 6 6 7 8 8 9 9 10 11
14 14 13 12 11 11 11 11 10 9 8 7 6 5 5 5 4 5 7 9 10 11 11 10 9 7 6 5 4 3 3 2 3 3 3 3 3 4 5 5 6 6 7 8 10 10 11 11 12
14 13 12 12 11 10 10 10 9 7 7 6 4 4 4 4 5 5 7 9 9 10 9 8 7 7 6 5 4 3 3 3 3 3 3 3 3 4 4 5 6 7 8 9 11 11 12 13 13
14 13 13 12 10 9 9 8 8 7 6 5 3 3 3 3 4 5 5 7 7 7 7 7 7 6 6 5 4 4 4 4 4 4 4 4 4 5 5 6 7 8 9 10 12 13 14 14 15
14 13 14 13 11 9 8 8 7 7 6 5 4 3 1 1 1 2 3 4 5 5 6 6 6 6 5 5 5 4 4 5 5 5 5 6 6 7 8 9 10 10 11 13 14 14 15 16 17
14 13 14 15 13 11 9 8 8 8 7 7 6 5 4 3 2 2 2 3 4 5 5 6 6 6 6 6 6 6 6 6 6 6 7 8 9 10 10 12 13 14 15 16 17 17 18 18 19
15 15 15 16 16 13 9 7 8 8 8 8 7 7 6 5 5 5 5 5 5 6 7 7 8 8 8 8 8 7 7 7 8 8 9 10 11 12 13 14 15 17 18 19 20 20 20 22 22
16 16 16 16 16 14 10 8 9 9 9 9 8 8 8 7 7 8 8 8 8 8 9 9 10 10 10 10 10 10 9 9 10 11 12 13 14 15 17 18 18 19 21 22 22 23 23 24 24
16 17 17 17 16 15 13 9 10 10 10 10 10 10 10 10 10 10 10 10 10 10 11 11 11 11 12 12 12 12 12 13 13 14 16 17 17 18 19 20 21 22 23 24 24 24 25 26 26

GEFSSGP_500_meanwind_072.txt.gz
Wind_Speed
11 11 11 12 12 12 13 13 13 12 11 10 9 9 9 11 11 12 11 11 11 11 10 9 9 9 8 8 7 7 6 5 4 4 3 2 2 1 0 1 2 2 2 3 3 3 3 3 3
12 12 12 12 12 13 14 13 12 11 10 10 10 10 10 11 12 13 12 11 12 12 10 9 9 9 8 8 8 7 6 5 4 4 3 3 2 2 1 2 2 3 3 3 2 2 2 2 2
11 12 12 12 12 13 15 14 13 12 11 11 10 9 9 11 12 13 12 12 12 12 11 10 9 9 8 8 8 7 6 6 5 5 4 4 3 3 3 3 3 4 4 3 3 3 2 2 1
12 12 12 13 13 14 15 15 15 14 13 11 10 9 9 10 11 12 12 12 12 11 11 9 9 9 9 8 8 7 6 6 5 5 5 4 4 5 5 5 5 5 5 5 4 4 3 2 2
12 12 12 13 14 15 15 15 15 15 13 12 11 10 11 11 11 12 12 13 12 12 11 10 10 9 9 9 8 8 7 6 6 6 6 6 6 6 6 6 6 6 6 6 6 5 5 4 3
12 12 11 13 15 16 16 16 16 16 14 12 11 10 11 12 13 13 13 14 14 14 12 11 10 10 10 9 9 8 7 7 7 7 7 7 7 7 7 7 7 7 8 7 7 7 6 5 5
11 11 11 12 15 16 15 15 15 14 14 13 11 11 10 11 13 14 14 15 15 14 13 12 11 11 10 10 9 8 8 8 8 8 8 8 8 8 9 8 8 8 8 8 8 8 8 7 6
11 11 11 12 13 14 14 14 14 13 13 12 11 12 12 12 13 15 15 16 16 15 14 14 13 12 11 10 9 9 8 8 8 8 9 9 9 9 9 9 9 9 9 9 9 8 8 8 7
11 11 10 11 12 13 13 13 13 12 12 12 11 13 15 15 14 15 16 18 18 17 16 15 14 13 12 11 10 10 9 9 9 9 9 10 10 10 10 10 10 9 9 9 8 8 7 8 8
12 11 11 12 13 13 13 13 13 12 12 11 11 13 15 15 16 17 18 20 20 19 18 17 16 14 13 12 11 11 10 10 10 10 10 10 10 10 10 10 9 8 8 8 7 7 6 7 7
12 12 12 13 13 13 13 13 13 12 12 12 12 13 14 16 17 19 21 22 22 22 20 19 17 15 14 13 12 11 10 10 9 9 9 9 10 10 10 9 9 8 8 7 7 7 6 6 7
12 13 13 14 14 14 14 14 14 12 11 11 11 12 15 17 19 21 23 24 24 23 22 20 18 17 16 15 13 11 10 10 10 9 10 10 10 9 9 8 8 8 7 7 7 6 7 7 7
12 13 14 15 15 16 15 15 15 14 13 12 12 13 14 16 18 21 23 25 25 25 24 22 20 19 17 15 13 11 10 10 9 9 9 9 9 8 7 7 7 7 7 7 7 7 7 7 7
12 13 15 15 16 17 17 16 16 15 14 13 13 13 14 16 18 20 23 25 26 26 25 24 22 20 18 15 12 11 9 9 8 8 8 8 7 6 6 6 6 6 6 6 6 6 6 6 7
12 14 15 16 17 18 18 18 18 17 16 14 13 12 13 14 17 21 23 25 27 27 26 24 23 21 18 15 13 11 9 8 7 7 7 6 5 5 5 5 5 5 5 5 6 6 6 6 6
13 15 16 17 18 17 18 19 20 18 16 14 11 11 12 13 16 20 23 25 27 28 27 24 23 21 19 16 14 11 9 8 6 6 5 4 4 4 3 3 3 4 4 5 5 5 4 5 5
13 14 15 18 18 17 17 18 20 18 16 13 11 9 10 12 14 18 21 22 25 27 26 24 23 20 17 16 14 11 9 7 6 5 4 3 3 2 2 2 2 2 2 3 3 3 3 4 4
11 13 16 18 18 18 17 18 19 18 15 13 10 7 7 8 11 15 17 20 23 24 24 23 22 19 16 14 12 10 8 7 6 4 3 2 2 1 1 1 1 1 2 2 2 2 3 3 4
13 15 17 17 17 17 16 17 17 17 15 13 10 8 5 5 7 10 13 15 20 20 21 22 21 19 16 13 11 9 8 7 6 5 4 3 2 1 1 0 1 1 2 2 2 2 3 3 3
13 15 16 17 16 15 15 15 16 15 14 13 10 8 6 4 3 7 11 14 17 19 19 19 18 17 15 13 10 9 9 8 6 5 4 3 2 1 1 1 1 1 2 2 2 3 3 3 3
13 15 16 16 16 14 14 14 14 14 14 12 11 8 7 4 1 3 8 11 14 16 17 17 16 16 14 12 10 10 9 8 6 5 4 3 3 2 1 1 1 1 2 2 3 3 3 3 3
13 15 15 15 14 13 13 13 13 12 12 11 9 8 7 4 1 1 5 9 13 15 15 15 15 15 14 12 11 10 9 8 7 6 5 4 3 2 2 1 1 1 1 2 3 3 4 4 4
14 16 14 13 12 12 12 11 12 10 11 10 9 7 7 5 3 2 4 8 11 12 13 14 14 13 12 12 10 10 9 8 7 6 5 4 4 3 3 2 2 1 1 2 3 4 4 5 5
16 16 14 12 11 11 12 10 10 9 9 9 8 6 6 5 3 3 3 6 10 12 13 13 13 12 12 11 10 10 9 8 7 6 6 5 5 4 4 4 4 3 3 4 4 5 6 7 7
16 14 12 10 10 11 12 10 9 9 7 7 7 6 5 4 4 3 4 6 8 10 12 12 12 12 11 10 10 9 8 8 7 7 6 6 6 6 6 6 6 6 6 7 7 8 8 9 10
15 12 10 9 8 10 12 9 10 9 8 6 5 5 4 4 4 2 3 4 7 8 10 11 11 11 10 10 9 9 8 7 7 7 7 7 7 8 8 8 9 9 9 10 10 11 11 12 12
13 11 11 10 10 9 9 10 10 10 9 6 5 4 3 3 3 2 1 2 4 6 8 9 10 10 10 10 9 9 8 8 8 8 8 8 9 9 10 10 11 12 12 13 13 14 15 15 15
13 13 11 8 9 8 9 9 9 9 8 7 6 5 4 3 2 1 1 3 4 6 7 8 9 10 10 10 10 10 10 10 10 10 10 11 11 12 13 13 14 15 15 16 16 17 17 18 18
14 13 11 10 10 8 8 9 11 9 9 8 7 7 6 6 5 4 4 4 5 7 8 9 10 10 11 11 12 12 12 13 13 13 14 14 15 16 16 17 17 18 18 19 20 20 21 21 21
13 12 11 10 11 10 8 10 11 10 10 10 9 9 8 8 8 7 7 7 7 8 9 10 11 12 13 13 14 15 15 16 16 17 17 18 19 20 20 21 21 21 22 22 23 23 23 23 23

GEFSSGP_500_meanwind_078.txt.gz
Wind_Speed
9 8 8 7 7 8 9 8 12 11 14 13 12 11 13 13 13 12 10 11 10 11 11 10 10 9 8 8 7 7 6 6 6 5 4 4 3 2 2 2 2 3 3 3 3 3 2 2 2
8 8 8 7 7 10 12 13 14 13 15 14 13 13 14 14 14 13 12 12 11 12 11 10 10 9 9 9 8 7 7 6 6 5 5 4 4 4 4 4 4 4 4 4 3 3 3 3 3
8 8 7 6 6 8 12 16 18 15 15 15 14 13 14 13 13 14 14 14 12 12 12 11 11 10 10 10 9 8 7 7 7 6 6 5 5 5 5 5 5 5 5 5 4 4 4 4 3
8 6 5 6 7 9 13 19 20 17 16 16 15 14 14 14 14 14 14 15 14 13 12 12 12 11 11 10 9 9 8 8 7 7 6 6 6 6 7 7 7 6 6 6 5 5 5 5 5
7 4 5 7 7 11 17 19 18 17 17 17 17 16 14 15 15 14 14 13 14 14 13 13 13 12 11 10 10 9 9 8 8 8 7 7 7 8 8 8 8 7 7 7 7 6 6 6 6
6 4 7 8 8 14 19 18 16 16 17 17 16 17 15 15 15 15 15 14 14 14 15 14 14 12 11 11 11 10 9 9 9 9 8 8 8 8 8 9 9 8 8 8 8 7 7 7 7
6 4 5 5 11 14 18 18 15 15 16 16 15 16 16 15 15 16 16 16 15 14 15 16 14 13 12 12 11 11 10 10 10 10 9 9 9 9 9 9 9 9 9 9 9 9 9 9 9
5 3 5 4 11 13 17 17 16 15 15 15 16 16 15 14 15 16 17 16 16 15 16 16 15 14 14 13 12 12 12 11 11 11 10 10 10 10 10 10 10 10 10 10 10 10 10 9 10
4 5 4 6 13 13 15 15 16 16 15 16 16 16 14 15 16 16 17 17 17 17 17 17 16 15 15 14 14 13 13 12 12 11 11 11 11 10 10 10 10 11 10 10 10 10 9 9 9
4 4 3 10 13 13 14 15 16 16 16 17 17 16 15 16 16 17 18 19 19 19 19 18 18 17 16 15 14 14 14 13 12 12 12 11 11 11 11 11 11 11 10 10 9 9 8 8 9
5 3 6 9 11 13 14 15 16 16 17 18 17 16 15 16 17 19 20 21 20 20 20 19 18 17 16 16 14 14 14 14 13 12 12 11 11 11 10 11 10 10 9 9 8 8 8 8 8
8 8 9 10 13 16 16 16 16 16 16 17 18 17 16 16 18 20 22 23 22 22 22 21 20 18 17 16 15 15 15 13 13 12 12 11 11 11 10 10 9 9 8 8 7 7 7 7 7
9 10 11 12 15 19 19 17 16 16 17 17 18 18 18 18 18 19 20 22 23 24 23 22 21 20 18 16 15 15 14 13 12 12 12 11 10 10 9 8 8 7 7 7 7 6 6 7 7
8 8 10 13 17 19 22 19 16 17 17 18 18 16 16 18 17 18 19 21 24 24 24 22 21 20 18 17 15 14 14 13 12 11 11 10 9 9 8 7 7 6 6 6 6 5 6 5 6
9 10 13 16 20 22 23 20 19 19 19 19 19 16 17 18 18 18 18 20 22 22 23 22 23 21 19 18 17 15 13 12 10 10 9 8 8 8 7 6 6 6 5 5 5 4 4 4 4
12 14 16 18 20 24 23 20 20 20 19 20 19 17 16 15 15 17 17 19 22 22 22 21 22 21 20 19 17 15 13 11 10 9 8 7 7 6 6 5 5 4 3 3 3 3 3 3 3
12 14 16 17 22 22 22 21 20 21 20 20 18 17 15 14 13 15 16 17 20 21 22 21 22 21 20 19 16 14 13 11 10 8 8 6 5 5 4 3 2 2 2 2 2 2 2 2 2
12 11 13 15 19 21 20 19 19 20 21 20 19 17 14 11 11 13 14 16 18 19 19 20 20 20 19 18 16 14 12 11 9 8 7 5 4 3 2 1 0 0 1 1 1 1 1 2 2
11 11 14 16 18 20 18 17 17 18 19 19 18 17 13 10 8 9 11 13 16 18 20 19 19 19 18 16 15 13 12 11 9 8 7 5 4 3 2 1 1 1 2 2 2 3 3 3 3
12 13 15 17 19 19 16 15 16 17 18 19 18 16 13 10 7 8 9 11 14 17 20 19 18 18 17 16 14 13 12 10 9 8 7 6 5 3 2 2 2 2 3 3 3 3 3 3 4
12 14 16 18 17 17 15 14 16 17 17 17 18 16 13 11 8 7 7 9 12 15 17 18 19 17 17 16 14 13 11 10 9 8 7 7 6 4 3 2 2 2 2 2 2 3 3 4 4
14 15 16 16 15 16 12 14 16 16 17 17 16 14 13 11 10 7 5 4 7 11 14 16 17 16 15 14 14 13 11 11 10 9 8 7 6 5 4 3 3 2 1 1 1 2 3 4 4
15 14 14 15 16 17 11 9 15 15 18 19 17 15 12 11 9 7 4 1 5 8 11 14 16 15 15 15 14 13 12 12 10 9 9 8 7 6 5 4 3 2 1 1 2 2 3 4 5
15 14 15 18 19 19 8 6 12 14 17 19 17 14 11 9 8 6 5 2 2 5 9 12 14 14 14 14 13 13 13 11 10 10 9 8 8 7 6 5 5 4 4 3 4 4 5 6 7
15 16 17 18 21 22 11 6 11 14 16 17 15 14 9 8 6 5 4 3 1 3 7 10 13 13 13 13 13 13 12 11 11 11 10 9 9 8 8 7 7 6 6 6 7 7 8 8 9
15 15 16 18 18 20 17 10 8 11 14 15 14 11 9 7 6 5 3 3 2 4 7 9 11 12 12 12 12 12 12 11 11 11 11 10 10 9 9 9 8 9 9 9 10 10 11 12 12
16 15 15 17 16 16 19 14 10 8 10 12 13 11 9 7 6 5 4 2 2 3 5 8 9 10 10 10 10 11 11 11 12 12 12 11 11 11 11 11 11 11 11 12 13 14 14 15 16
16 15 14 14 15 14 17 16 14 10 10 12 13 11 10 8 6 5 4 2 1 2 3 6 7 8 9 10 10 11 12 12 13 13 13 13 13 13 13 13 13 14 14 15 16 17 18 19 19
18 15 14 14 14 14 17 19 15 12 12 12 12 11 10 9 7 5 4 3 1 1 2 3 5 7 8 10 11 12 12 13 14 14 14 14 15 15 15 15 16 16 17 18 19 20 21 22 22
20 17 16 16 14 13 14 20 17 13 13 11 11 12 11 9 9 7 6 6 5 5 5 6 7 8 10 11 12 13 14 15 15 15 16 16 17 17 18 18 19 19 20 21 22 23 24 25 25